| time (UTC) | temp F | wind direction | speed knots | gust knots | rain 1hr in | rain 24hr in | rain mn in | humidity % | barometer mb |
| 20260506012448 | 62 | 158 | 0.0 | 1.7 | 0.00 | 0.00 | 0.00 | 10 | 1014.6 |
| 20260506011938 | 62 | 158 | 0.0 | 1.7 | 0.00 | 0.00 | 0.00 | 10 | 1014.9 |
| 20260506010918 | 61 | 293 | 0.0 | 0.0 | 0.00 | 0.00 | 0.00 | 10 | 1014.9 |
| 20260506010408 | 61 | 293 | 0.0 | 0.0 | 0.00 | 0.00 | 0.00 | 10 | 1015.0 |
| 20260506005858 | 61 | 293 | 0.0 | 0.0 | 0.00 | 0.00 | 0.00 | 10 | 1014.7 |
| 20260506005348 | 61 | 315 | 0.0 | 1.7 | 0.00 | 0.00 | 0.00 | 10 | 1014.6 |
| 20260506003308 | 61 | 293 | 0.0 | 0.0 | 0.00 | 0.00 | 0.00 | 10 | 1014.7 |
| 20260506002757 | 62 | 293 | 0.0 | 0.0 | 0.00 | 0.00 | 0.00 | 10 | 1014.5 |
| 20260506002248 | 62 | 315 | 0.0 | 0.0 | 0.00 | 0.00 | 0.00 | 10 | 1014.7 |
| 20260506001737 | 62 | 315 | 0.0 | 1.7 | 0.00 | 0.00 | 0.00 | 10 | 1014.7 |
| 20260506001227 | 62 | 315 | 0.0 | 1.7 | 0.00 | 0.00 | 0.00 | 10 | 1014.6 |
| 20260506000717 | 62 | 23 | 0.9 | 1.7 | 0.00 | 0.00 | 0.00 | 10 | 1014.3 |
| 20260506000207 | 63 | 293 | 0.0 | 1.7 | 0.00 | 0.00 | 0.00 | 10 | 1014.5 |
| 20260505235656 | 63 | 293 | 0.0 | 1.7 | 0.00 | 0.00 | 0.00 | 10 | 1014.5 |
| 20260505235147 | 62 | 293 | 0.0 | 1.7 | 0.00 | 0.00 | 0.00 | 10 | 1014.3 |
| 20260505233616 | 63 | 90 | 0.0 | 3.5 | 0.00 | 0.00 | 0.00 | 10 | 1014.4 |
| 20260505233106 | 63 | 23 | 0.0 | 3.5 | 0.00 | 0.00 | 0.00 | 10 | 1014.4 |
| 20260505232555 | 63 | 68 | 1.7 | 3.5 | 0.00 | 0.00 | 0.00 | 10 | 1014.3 |
| 20260505232046 | 64 | 68 | 1.7 | 7.0 | 0.00 | 0.00 | 0.00 | 10 | 1014.0 |
| 20260505231026 | 64 | 68 | 2.6 | 3.5 | 0.00 | 0.00 | 0.00 | 10 | 1014.0 |
| 20260505230006 | 64 | 90 | 1.7 | 5.2 | 0.00 | 0.00 | 0.00 | 10 | 1013.9 |
| 20260505225456 | 65 | 90 | 1.7 | 5.2 | 0.00 | 0.00 | 0.00 | 10 | 1013.9 |
| 20260505224945 | 64 | 90 | 0.9 | 3.5 | 0.00 | 0.00 | 0.00 | 10 | 1013.9 |
| 20260505224435 | 64 | 90 | 1.7 | 3.5 | 0.00 | 0.00 | 0.00 | 10 | 1013.9 |
| 20260505223925 | 65 | 68 | 1.7 | 3.5 | 0.00 | 0.00 | 0.00 | 10 | 1013.9 |
| 20260505223415 | 65 | 90 | 1.7 | 3.5 | 0.00 | 0.00 | 0.00 | 10 | 1013.7 |
| 20260505222905 | 65 | 90 | 1.7 | 3.5 | 0.00 | 0.00 | 0.00 | 10 | 1013.6 |
| 20260505222355 | 65 | 90 | 1.7 | 5.2 | 0.00 | 0.00 | 0.00 | 10 | 1013.7 |
| 20260505221844 | 65 | 68 | 1.7 | 5.2 | 0.00 | 0.00 | 0.00 | 10 | 1013.5 |
| 20260505221335 | 65 | 90 | 1.7 | 3.5 | 0.00 | 0.00 | 0.00 | 10 | 1013.7 |
| 20260505220824 | 66 | 90 | 1.7 | 5.2 | 0.00 | 0.00 | 0.00 | 10 | 1013.5 |
| 20260505220314 | 66 | 113 | 1.7 | 6.1 | 0.00 | 0.00 | 0.00 | 10 | 1013.4 |
| 20260505215257 | 66 | 68 | 1.7 | 3.5 | 0.00 | 0.00 | 0.00 | 10 | 1013.3 |
| 20260505214743 | 67 | 113 | 0.9 | 5.2 | 0.00 | 0.00 | 0.00 | 10 | 1013.4 |
| 20260505214234 | 67 | 90 | 1.7 | 6.1 | 0.00 | 0.00 | 0.00 | 10 | 1013.5 |
| 20260505213723 | 67 | 90 | 1.7 | 6.1 | 0.00 | 0.00 | 0.00 | 10 | 1013.2 |
| 20260505212704 | 67 | 113 | 1.7 | 3.5 | 0.00 | 0.00 | 0.00 | 10 | 1013.7 |
| 20260505212154 | 68 | 113 | 1.7 | 5.2 | 0.00 | 0.00 | 0.00 | 10 | 1013.5 |
| 20260505211643 | 68 | 90 | 2.6 | 5.2 | 0.00 | 0.00 | 0.00 | 10 | 1013.5 |
| 20260505211133 | 68 | 90 | 1.7 | 3.5 | 0.00 | 0.00 | 0.00 | 10 | 1013.3 |
| 20260505210623 | 69 | 90 | 1.7 | 7.0 | 0.00 | 0.00 | 0.00 | 10 | 1013.4 |
| 20260505210112 | 69 | 90 | 1.7 | 7.0 | 0.00 | 0.00 | 0.00 | 10 | 1013.2 |
| 20260505205603 | 69 | 90 | 1.7 | 3.5 | 0.00 | 0.00 | 0.00 | 10 | 1013.3 |
| 20260505205054 | 69 | 113 | 1.7 | 5.2 | 0.00 | 0.00 | 0.00 | 10 | 1013.5 |
| 20260505204542 | 70 | 90 | 1.7 | 5.2 | 0.00 | 0.00 | 0.00 | 10 | 1013.4 |
| 20260505204033 | 70 | 90 | 1.7 | 7.0 | 0.00 | 0.00 | 0.00 | 10 | 1013.3 |
| 20260505203522 | 70 | 113 | 1.7 | 7.0 | 0.00 | 0.00 | 0.00 | 10 | 1013.1 |
| 20260505201951 | 71 | 113 | 1.7 | 5.2 | 0.00 | 0.00 | 0.00 | 10 | 1013.2 |
| 20260505201442 | 71 | 113 | 1.7 | 6.1 | 0.00 | 0.00 | 0.00 | 10 | 1013.1 |
| 20260505200932 | 71 | 113 | 2.6 | 6.1 | 0.00 | 0.00 | 0.00 | 10 | 1012.8 |
| 20260505200422 | 72 | 68 | 2.6 | 6.1 | 0.00 | 0.00 | 0.00 | 10 | 1013.0 |
| 20260505195911 | 73 | 90 | 1.7 | 5.2 | 0.00 | 0.00 | 0.00 | 10 | 1012.9 |
| 20260505195401 | 73 | 113 | 2.6 | 5.2 | 0.00 | 0.00 | 0.00 | 10 | 1013.1 |
| 20260505194851 | 73 | 90 | 1.7 | 3.5 | 0.00 | 0.00 | 0.00 | 10 | 1012.8 |
| 20260505194341 | 74 | 90 | 1.7 | 3.5 | 0.00 | 0.00 | 0.00 | 10 | 1012.9 |
| 20260505193831 | 74 | 90 | 2.6 | 3.5 | 0.00 | 0.00 | 0.00 | 10 | 1013.0 |
| 20260505193322 | 74 | 90 | 1.7 | 3.5 | 0.00 | 0.00 | 0.00 | 10 | 1013.0 |
| 20260505192810 | 74 | 113 | 1.7 | 3.5 | 0.00 | 0.00 | 0.00 | 10 | 1013.2 |
| 20260505192300 | 74 | 113 | 1.7 | 3.5 | 0.00 | 0.00 | 0.00 | 10 | 1013.1 |
| 20260505191750 | 74 | 68 | 1.7 | 5.2 | 0.00 | 0.00 | 0.00 | 10 | 1013.1 |
| 20260505191240 | 74 | 90 | 1.7 | 5.2 | 0.00 | 0.00 | 0.00 | 10 | 1013.1 |
| 20260505190730 | 74 | 90 | 2.6 | 3.5 | 0.00 | 0.00 | 0.00 | 10 | 1013.1 |
| 20260505190220 | 74 | 90 | 1.7 | 3.5 | 0.00 | 0.00 | 0.00 | 10 | 1013.1 |
| 20260505185710 | 75 | 113 | 1.7 | 3.5 | 0.00 | 0.00 | 0.00 | 10 | 1013.1 |
| 20260505185200 | 74 | 90 | 1.7 | 3.5 | 0.00 | 0.00 | 0.00 | 10 | 1013.1 |
| 20260505184650 | 74 | 90 | 1.7 | 3.5 | 0.00 | 0.00 | 0.00 | 10 | 1013.0 |
| 20260505184139 | 75 | 68 | 0.9 | 3.5 | 0.00 | 0.00 | 0.00 | 10 | 1013.2 |
| 20260505183629 | 74 | 90 | 1.7 | 3.5 | 0.00 | 0.00 | 0.00 | 10 | 1013.0 |
| 20260505183120 | 75 | 90 | 0.0 | 0.0 | 0.00 | 0.00 | 0.00 | 10 | 1013.2 |
| 20260505182609 | 75 | 90 | 0.0 | 0.0 | 0.00 | 0.00 | 0.00 | 10 | 1013.3 |
| 20260505182059 | 74 | 113 | 0.0 | 3.5 | 0.00 | 0.00 | 0.00 | 10 | 1013.3 |
| 20260505181549 | 74 | 90 | 0.0 | 3.5 | 0.00 | 0.00 | 0.00 | 10 | 1013.3 |
| 20260505181041 | 73 | 68 | 1.7 | 3.5 | 0.00 | 0.00 | 0.00 | 10 | 1013.1 |
| 20260505180529 | 74 | 68 | 1.7 | 3.5 | 0.00 | 0.00 | 0.00 | 10 | 1013.5 |
| 20260505180019 | 74 | 135 | 0.9 | 3.5 | 0.00 | 0.00 | 0.00 | 10 | 1013.4 |
| 20260505175509 | 73 | 113 | 0.9 | 1.7 | 0.00 | 0.00 | 0.00 | 10 | 1013.4 |
| 20260505174958 | 74 | 135 | 0.9 | 3.5 | 0.00 | 0.00 | 0.00 | 10 | 1013.6 |
| 20260505174449 | 73 | 113 | 1.7 | 3.5 | 0.00 | 0.00 | 0.00 | 10 | 1013.6 |
| 20260505173938 | 73 | 113 | 0.9 | 3.5 | 0.00 | 0.00 | 0.00 | 10 | 1013.7 |
| 20260505173427 | 73 | 135 | 1.7 | 3.5 | 0.00 | 0.00 | 0.00 | 10 | 1014.0 |
| 20260505172918 | 72 | 113 | 1.7 | 3.5 | 0.00 | 0.00 | 0.00 | 10 | 1013.9 |
| 20260505172407 | 72 | 113 | 1.7 | 3.5 | 0.00 | 0.00 | 0.00 | 10 | 1013.9 |
| 20260505171858 | 73 | 180 | 0.0 | 3.5 | 0.00 | 0.00 | 0.00 | 10 | 1013.9 |
| 20260505171348 | 72 | 180 | 1.7 | 3.5 | 0.00 | 0.00 | 0.00 | 10 | 1014.0 |
| 20260505170837 | 72 | 135 | 0.9 | 3.5 | 0.00 | 0.00 | 0.00 | 10 | 1014.0 |
| 20260505170328 | 72 | 180 | 1.7 | 3.5 | 0.00 | 0.00 | 0.00 | 10 | 1014.1 |
| 20260505165307 | 70 | 113 | 1.7 | 3.5 | 0.00 | 0.00 | 0.00 | 10 | 1014.1 |
| 20260505164757 | 71 | 113 | 0.9 | 3.5 | 0.00 | 0.00 | 0.00 | 10 | 1014.3 |
| 20260505164247 | 72 | 113 | 0.9 | 3.5 | 0.00 | 0.00 | 0.00 | 10 | 1014.2 |
| 20260505163737 | 70 | 113 | 1.7 | 3.5 | 0.00 | 0.00 | 0.00 | 10 | 1014.0 |
| 20260505163227 | 70 | 113 | 1.7 | 3.5 | 0.00 | 0.00 | 0.00 | 10 | 1014.4 |
| 20260505162716 | 71 | 158 | 0.9 | 3.5 | 0.00 | 0.00 | 0.00 | 10 | 1014.3 |
| 20260505162206 | 70 | 158 | 1.7 | 3.5 | 0.00 | 0.00 | 0.00 | 10 | 1014.4 |
| 20260505161656 | 69 | 113 | 1.7 | 3.5 | 0.00 | 0.00 | 0.00 | 10 | 1014.2 |
| 20260505161146 | 69 | 135 | 1.7 | 3.5 | 0.00 | 0.00 | 0.00 | 10 | 1014.4 |
| 20260505160127 | 67 | 135 | 1.7 | 3.5 | 0.00 | 0.00 | 0.00 | 10 | 1014.4 |
| 20260505153025 | 67 | 158 | 1.7 | 3.5 | 0.00 | 0.00 | 0.00 | 10 | 1014.7 |
| 20260505152516 | 67 | 158 | 0.9 | 3.5 | 0.00 | 0.00 | 0.00 | 10 | 1014.5 |
| 20260505152005 | 66 | 113 | 1.7 | 3.5 | 0.00 | 0.00 | 0.00 | 10 | 1014.4 |
| 20260505151455 | 66 | 135 | 1.7 | 3.5 | 0.00 | 0.00 | 0.00 | 10 | 1014.7 |
| 20260505150944 | 65 | 113 | 1.7 | 3.5 | 0.00 | 0.00 | 0.00 | 10 | 1014.9 |
| 20260505150435 | 65 | 113 | 1.7 | 3.5 | 0.00 | 0.00 | 0.00 | 10 | 1014.9 |
| 20260505140233 | 65 | 90 | 1.7 | 1.7 | 0.00 | 0.00 | 0.00 | 10 | 1015.1 |
| 20260505125012 | 59 | 338 | 0.0 | 3.5 | 0.00 | 0.00 | 0.00 | 10 | 1015.3 |
| 20260505124502 | 57 | 338 | 1.7 | 5.2 | 0.00 | 0.00 | 0.00 | 10 | 1015.5 |
| 20260505123952 | 56 | 293 | 2.6 | 5.2 | 0.00 | 0.00 | 0.00 | 10 | 1015.3 |
| 20260505123441 | 56 | 293 | 2.6 | 3.5 | 0.00 | 0.00 | 0.00 | 10 | 1015.2 |
| 20260505122932 | 56 | 270 | 0.9 | 3.5 | 0.00 | 0.00 | 0.00 | 10 | 1015.1 |
| 20260505122421 | 55 | 293 | 1.7 | 3.5 | 0.00 | 0.00 | 0.00 | 10 | 1015.0 |
| 20260505121401 | 54 | 270 | 0.0 | 0.0 | 0.00 | 0.00 | 0.00 | 10 | 1014.9 |
| 20260505120851 | 54 | 203 | 0.0 | 0.0 | 0.00 | 0.00 | 0.00 | 10 | 1015.1 |
| 20260505120341 | 53 | 270 | 0.0 | 0.0 | 0.00 | 0.00 | 0.00 | 10 | 1015.1 |
| 20260505115830 | 52 | 270 | 0.0 | 1.7 | 0.00 | 0.00 | 0.00 | 10 | 1015.3 |
| 20260505115321 | 51 | 315 | 0.0 | 1.7 | 0.00 | 0.00 | 0.00 | 10 | 1015.0 |
| 20260505114300 | 50 | 315 | 0.0 | 3.5 | 0.00 | 0.00 | 0.00 | 10 | 1014.8 |
| 20260505113750 | 49 | 270 | 0.9 | 3.5 | 0.00 | 0.00 | 0.00 | 10 | 1014.9 |
| 20260505113240 | 49 | 315 | 0.9 | 3.5 | 0.00 | 0.00 | 0.00 | 10 | 1014.9 |
| 20260505112730 | 48 | 315 | 0.9 | 3.5 | 0.00 | 0.00 | 0.00 | 10 | 1014.8 |
| 20260505112219 | 48 | 315 | 0.0 | 1.7 | 0.00 | 0.00 | 0.00 | 10 | 1014.8 |
| 20260505111710 | 48 | 248 | 0.0 | 0.0 | 0.00 | 0.00 | 0.00 | 10 | 1014.7 |
| 20260505110649 | 48 | 248 | 0.0 | 3.5 | 0.00 | 0.00 | 0.00 | 10 | 1014.7 |
| 20260505102018 | 49 | 248 | 2.6 | 3.5 | 0.00 | 0.00 | 0.00 | 10 | 1014.4 |
| 20260505101513 | 50 | 315 | 1.7 | 3.5 | 0.00 | 0.00 | 0.00 | 10 | 1014.2 |
| 20260505100958 | 51 | 293 | 0.0 | 3.5 | 0.00 | 0.00 | 0.00 | 10 | 1014.1 |
| 20260505100448 | 51 | 293 | 0.0 | 3.5 | 0.00 | 0.00 | 0.00 | 10 | 1013.9 |
| 20260505095938 | 51 | 293 | 1.7 | 3.5 | 0.00 | 0.00 | 0.00 | 10 | 1014.2 |
| 20260505095428 | 51 | 315 | 1.7 | 3.5 | 0.00 | 0.00 | 0.00 | 10 | 1013.7 |
| 20260505094918 | 50 | 315 | 0.9 | 3.5 | 0.00 | 0.00 | 0.00 | 10 | 1014.0 |
| 20260505094408 | 51 | 293 | 0.9 | 3.5 | 0.00 | 0.00 | 0.00 | 10 | 1013.6 |
| 20260505093858 | 50 | 23 | 0.0 | 1.7 | 0.00 | 0.00 | 0.00 | 10 | 1013.2 |
| 20260505093347 | 50 | 338 | 0.0 | 1.7 | 0.00 | 0.00 | 0.00 | 10 | 1013.0 |
| 20260505092837 | 50 | 315 | 0.0 | 1.7 | 0.00 | 0.00 | 0.00 | 10 | 1013.4 |
| 20260505092327 | 50 | 293 | 1.7 | 1.7 | 0.00 | 0.00 | 0.00 | 10 | 1013.1 |
| 20260505091817 | 50 | 315 | 0.0 | 3.5 | 0.00 | 0.00 | 0.00 | 10 | 1013.2 |
| 20260505090757 | 50 | 293 | 0.9 | 3.5 | 0.00 | 0.00 | 0.00 | 10 | 1013.0 |
| 20260505090247 | 50 | 270 | 1.7 | 3.5 | 0.00 | 0.00 | 0.00 | 10 | 1013.2 |
| 20260505085226 | 50 | 0 | 0.0 | 1.7 | 0.00 | 0.00 | 0.00 | 10 | 1012.7 |
| 20260505084717 | 50 | 338 | 0.0 | 3.5 | 0.00 | 0.00 | 0.00 | 10 | 1012.9 |
| 20260505084207 | 51 | 270 | 0.0 | 3.5 | 0.00 | 0.00 | 0.00 | 10 | 1012.8 |
| 20260505083655 | 50 | 293 | 0.9 | 1.7 | 0.00 | 0.00 | 0.00 | 10 | 1012.9 |
| 20260505083146 | 51 | 248 | 0.0 | 1.7 | 0.00 | 0.00 | 0.00 | 10 | 1012.6 |
| 20260505082636 | 50 | 338 | 0.0 | 1.7 | 0.00 | 0.00 | 0.00 | 10 | 1012.6 |
| 20260505082125 | 50 | 338 | 0.0 | 0.0 | 0.00 | 0.00 | 0.00 | 10 | 1012.6 |
| 20260505081616 | 51 | 293 | 0.0 | 0.0 | 0.00 | 0.00 | 0.00 | 10 | 1012.6 |
| 20260505081106 | 50 | 270 | 0.0 | 0.0 | 0.00 | 0.00 | 0.00 | 10 | 1012.6 |
| 20260505080555 | 51 | 270 | 0.0 | 0.0 | 0.00 | 0.00 | 0.00 | 10 | 1012.4 |
| 20260505080045 | 51 | 270 | 0.0 | 1.7 | 0.00 | 0.00 | 0.00 | 10 | 1012.5 |
| 20260505075535 | 51 | 293 | 0.0 | 1.7 | 0.00 | 0.00 | 0.00 | 10 | 1012.5 |
| 20260505075025 | 51 | 315 | 0.9 | 1.7 | 0.00 | 0.00 | 0.00 | 10 | 1012.3 |
| 20260505074515 | 51 | 315 | 0.9 | 1.7 | 0.00 | 0.00 | 0.00 | 10 | 1012.5 |
| 20260505074005 | 51 | 338 | 0.0 | 1.7 | 0.00 | 0.00 | 0.00 | 10 | 1012.6 |
| 20260505073455 | 51 | 338 | 0.9 | 3.5 | 0.00 | 0.00 | 0.00 | 10 | 1012.6 |
| 20260505072944 | 50 | 315 | 1.7 | 3.5 | 0.00 | 0.00 | 0.00 | 10 | 1012.9 |
| 20260505072434 | 50 | 315 | 1.7 | 1.7 | 0.00 | 0.00 | 0.00 | 10 | 1013.0 |
| 20260505071924 | 49 | 315 | 1.7 | 1.7 | 0.00 | 0.00 | 0.00 | 10 | 1012.8 |
| 20260505071414 | 51 | 315 | 0.9 | 1.7 | 0.00 | 0.00 | 0.00 | 10 | 1012.7 |
| 20260505070904 | 51 | 270 | 0.0 | 1.7 | 0.00 | 0.00 | 0.00 | 10 | 1013.1 |
| 20260505070352 | 51 | 270 | 0.0 | 0.0 | 0.00 | 0.00 | 0.00 | 10 | 1012.9 |
| 20260505070152 | 51 | 315 | 0.0 | 0.0 | 0.00 | 0.00 | 0.00 | 10 | 1013.0 |
| 20260505065534 | 51 | 315 | 0.0 | 1.7 | 0.00 | 0.00 | 0.00 | 10 | 1012.9 |
| 20260505065024 | 51 | 315 | 0.0 | 1.7 | 0.00 | 0.00 | 0.00 | 10 | 1012.8 |
| 20260505064004 | 51 | 338 | 0.0 | 3.5 | 0.00 | 0.00 | 0.00 | 10 | 1013.1 |
| 20260505063454 | 51 | 338 | 0.0 | 1.7 | 0.00 | 0.00 | 0.00 | 10 | 1012.9 |
| 20260505062943 | 51 | 293 | 0.0 | 0.0 | 0.00 | 0.00 | 0.00 | 10 | 1013.0 |
| 20260505062434 | 51 | 248 | 0.0 | 0.0 | 0.00 | 0.00 | 0.00 | 10 | 1013.1 |
| 20260505061924 | 52 | 270 | 0.0 | 0.0 | 0.00 | 0.00 | 0.00 | 10 | 1012.7 |
| 20260505061413 | 52 | 270 | 0.0 | 0.0 | 0.00 | 0.00 | 0.00 | 10 | 1012.9 |
| 20260505060903 | 51 | 23 | 0.0 | 0.0 | 0.00 | 0.00 | 0.00 | 10 | 1013.1 |
| 20260505060353 | 51 | 293 | 0.0 | 0.0 | 0.00 | 0.00 | 0.00 | 10 | 1012.9 |
| 20260505055333 | 52 | 225 | 0.0 | 0.0 | 0.00 | 0.00 | 0.00 | 10 | 1012.6 |
| 20260505054823 | 52 | 270 | 0.0 | 3.5 | 0.00 | 0.00 | 0.00 | 10 | 1012.8 |
| 20260505054312 | 52 | 338 | 0.0 | 3.5 | 0.00 | 0.00 | 0.00 | 10 | 1012.8 |
| 20260505053803 | 52 | 225 | 0.9 | 1.7 | 0.00 | 0.00 | 0.00 | 10 | 1012.8 |
| 20260505053252 | 53 | 225 | 0.0 | 0.0 | 0.00 | 0.00 | 0.00 | 10 | 1012.9 |
| 20260505052743 | 52 | 270 | 0.0 | 1.7 | 0.00 | 0.00 | 0.00 | 10 | 1012.8 |
| 20260505052232 | 52 | 338 | 0.0 | 1.7 | 0.00 | 0.00 | 0.00 | 10 | 1013.0 |
| 20260505051729 | 51 | 293 | 0.0 | 0.0 | 0.00 | 0.00 | 0.00 | 10 | 1013.1 |
| 20260505051212 | 52 | 315 | 0.0 | 1.7 | 0.00 | 0.00 | 0.00 | 10 | 1013.1 |
| 20260505050702 | 52 | 315 | 0.0 | 1.7 | 0.00 | 0.00 | 0.00 | 10 | 1013.1 |
| 20260505050152 | 52 | 293 | 1.7 | 1.7 | 0.00 | 0.00 | 0.00 | 10 | 1013.1 |
| 20260505041531 | 55 | 315 | 0.9 | 3.5 | 0.00 | 0.00 | 0.00 | 10 | 1013.1 |
| 20260505041011 | 55 | 315 | 1.7 | 3.5 | 0.00 | 0.00 | 0.00 | 10 | 1013.3 |
| 20260505035951 | 55 | 293 | 1.7 | 3.5 | 0.00 | 0.00 | 0.00 | 10 | 1013.0 |
| 20260505035440 | 55 | 293 | 2.6 | 3.5 | 0.00 | 0.00 | 0.00 | 10 | 1013.0 |
| 20260505034931 | 55 | 293 | 1.7 | 1.7 | 0.00 | 0.00 | 0.00 | 10 | 1013.0 |
| 20260505033910 | 55 | 23 | 0.0 | 1.7 | 0.00 | 0.00 | 0.00 | 10 | 1012.8 |
| 20260505033400 | 54 | 338 | 0.0 | 1.7 | 0.00 | 0.00 | 0.00 | 10 | 1012.9 |
| 20260505032850 | 55 | 293 | 0.0 | 3.5 | 0.00 | 0.00 | 0.00 | 10 | 1013.0 |
| 20260505032339 | 56 | 293 | 0.0 | 3.5 | 0.00 | 0.00 | 0.00 | 10 | 1013.0 |
| 20260505031829 | 55 | 315 | 1.7 | 3.5 | 0.00 | 0.00 | 0.00 | 10 | 1013.0 |
| 20260505031319 | 56 | 315 | 1.7 | 1.7 | 0.00 | 0.00 | 0.00 | 10 | 1013.1 |
| 20260505030809 | 56 | 315 | 0.9 | 1.7 | 0.00 | 0.00 | 0.00 | 10 | 1013.0 |
| 20260505030259 | 56 | 315 | 0.0 | 1.7 | 0.00 | 0.00 | 0.00 | 10 | 1012.9 |
| 20260505025749 | 57 | 315 | 0.0 | 1.7 | 0.00 | 0.00 | 0.00 | 10 | 1013.0 |
| 20260505025240 | 57 | 293 | 1.7 | 1.7 | 0.00 | 0.00 | 0.00 | 10 | 1012.7 |
| 20260505024728 | 57 | 0 | 0.0 | 1.7 | 0.00 | 0.00 | 0.00 | 10 | 1012.8 |
| 20260505024219 | 57 | 0 | 0.0 | 1.7 | 0.00 | 0.00 | 0.00 | 10 | 1012.7 |
| 20260505023708 | 59 | 270 | 0.0 | 1.7 | 0.00 | 0.00 | 0.00 | 10 | 1012.5 |
| 20260505023159 | 59 | 248 | 0.0 | 1.7 | 0.00 | 0.00 | 0.00 | 10 | 1012.5 |
| 20260505022650 | 60 | 270 | 1.7 | 1.7 | 0.00 | 0.00 | 0.00 | 10 | 1012.6 |
| 20260505021628 | 60 | 270 | 0.0 | 1.7 | 0.00 | 0.00 | 0.00 | 10 | 1012.4 |
| 20260505021118 | 61 | 90 | 0.0 | 1.7 | 0.00 | 0.00 | 0.00 | 10 | 1012.4 |
| 20260505020058 | 62 | 135 | 0.0 | 1.7 | 0.00 | 0.00 | 0.00 | 10 | 1012.1 |
| 20260505015548 | 62 | 90 | 0.0 | 1.7 | 0.00 | 0.00 | 0.00 | 10 | 1012.0 |
| 20260505015037 | 61 | 158 | 0.0 | 1.7 | 0.00 | 0.00 | 0.00 | 10 | 1012.0 |
| 20260505014528 | 62 | 90 | 0.0 | 1.7 | 0.00 | 0.00 | 0.00 | 10 | 1012.0 |
| 20260505014018 | 62 | 270 | 0.0 | 3.5 | 0.00 | 0.00 | 0.00 | 10 | 1011.9 |
| 20260505013512 | 62 | 23 | 1.7 | 3.5 | 0.00 | 0.00 | 0.00 | 10 | 1011.7 |
| 20260505012957 | 62 | 68 | 0.0 | 7.0 | 0.00 | 0.00 | 0.00 | 10 | 1011.7 |